Location: De Har
(53.3413°N, 6.6858°E)
Time: 18:50:48
(UTC+00:00)

Aureole 1 Rocket - Pass Details

Date: 22 April 2026
Orbit: 373 x 1151 km, 73.9° (Epoch: 9 May)

Event Time Altitude Azimuth Distance (km) Brightness Sun altitude
Rises 03:35:00 0° 321° (NW) 2,677 6.2 -6.6°
Reaches altitude 10° 03:37:24 10° 304° (NW) 1,902 5.3 -6.3°
Maximum altitude 03:40:32 20° 256° (WSW) 1,489 4.4 -5.9°
Drops below altitude 10° 03:44:10 10° 210° (SSW) 2,244 5.4 -5.4°
Sets 03:47:19 0° 195° (SSW) 3,330 6.4 -5.0°
